This is the latest recevied weather packets stored in our database for station/object SP8EBC-11. If no packets are shown the sender has not sent any weather packets the latest 1 day(s).
| Time | Temp. | Humidity | Pressure | Rain* | Wind** | Luminosity | Snow |
|---|---|---|---|---|---|---|---|
| 1777973365 | 18.89° C | 64% | 993.9 hPa | - | 1.34 m/s, 129° | - | - |
| 1777973245 | 19.44° C | 64% | 994.1 hPa | - | 1.34 m/s, 98° | - | - |
| 1777973125 | 19.44° C | 64% | 994 hPa | - | 2.24 m/s, 105° | - | - |
| 1777973005 | 19.44° C | 64% | 993.7 hPa | - | 2.68 m/s, 99° | - | - |
| 1777972885 | 19.44° C | 64% | 993.4 hPa | - | 2.24 m/s, 81° | - | - |
| 1777972766 | 19.44° C | 64% | 993.3 hPa | - | 0.89 m/s, 104° | - | - |
| 1777972645 | 19.44° C | 64% | 993.3 hPa | - | 0.89 m/s, 115° | - | - |
| 1777972525 | 19.44° C | 64% | 993.3 hPa | - | 0.89 m/s, 105° | - | - |
| 1777972405 | 19.44° C | 64% | 993.4 hPa | - | 0.89 m/s, 61° | - | - |
| 1777972285 | 18.89° C | 65% | 993.5 hPa | - | 0.89 m/s, 39° | - | - |
| 1777972165 | 18.89° C | 65% | 993.5 hPa | - | 0.89 m/s, 75° | - | - |
| 1777972045 | 18.89° C | 65% | 993.7 hPa | - | 0.89 m/s, 104° | - | - |
| 1777971925 | 18.89° C | 65% | 993.7 hPa | - | 1.79 m/s, 117° | - | - |
| 1777971805 | 18.89° C | 65% | 993.6 hPa | - | 1.79 m/s, 136° | - | - |
| 1777971685 | 18.33° C | 65% | 993.6 hPa | - | 1.34 m/s, 119° | - | - |
| 1777971565 | 18.33° C | 65% | 993.6 hPa | - | 0.89 m/s, 99° | - | - |
| 1777971444 | 18.33° C | 65% | 993.7 hPa | - | 0.89 m/s, 159° | - | - |
| 1777971324 | 18.33° C | 65% | 993.7 hPa | - | 1.79 m/s, 160° | - | - |
| 1777971204 | 18.33° C | 65% | 993.8 hPa | - | 1.79 m/s, 146° | - | - |
| 1777971084 | 18.33° C | 66% | 993.8 hPa | - | 1.34 m/s, 130° | - | - |
| 1777970964 | 18.33° C | 65% | 994 hPa | - | 0.89 m/s, 126° | - | - |
| 1777970844 | 18.33° C | 65% | 994.1 hPa | - | 1.34 m/s, 101° | - | - |
| 1777970723 | 18.33° C | 66% | 994.1 hPa | - | 2.24 m/s, 101° | - | - |
| 1777970604 | 18.33° C | 65% | 993.9 hPa | - | 2.24 m/s, 96° | - | - |
| 1777970484 | 18.33° C | 66% | 993.7 hPa | - | 1.34 m/s, 52° | - | - |
* Rain since midnight (hover to see other rain measurements)
** Current wind speed in m/s (hover to see current wind gust speed)